Powrót do katalogu

SL-12 R/B

AUX MOTOR

AktywnyHEO
NORAD 25053·ROCKET BODY·🇷🇺 Russia

Wystrzelony Nov 12, 1997 z Baikonur Cosmodrome

Loading…

Następne Przeloty (najbliższe 24 godziny)

TLE

Starzejące sięSource: Space-Track

Epoka: Aug 31, 2026, 09:56 UTC

1 25053U 97070E   26243.41390078 -.00000112  00000-0  00000-0 0  9992
2 25053  45.4535  37.4812 6604061 288.1991  13.9450  2.41726953253729

Śledź SL-12 R/B w czasie rzeczywistym z AllMySat

Download on the App Store